TimePDT,TemperatureF,Dew PointF,Humidity,Sea Level PressureIn,VisibilityMPH,Wind Direction,Wind SpeedMPH,Gust SpeedMPH,PrecipitationIn,Events,Conditions,WindDirDegrees,DateUTC
12:16 AM,68.0,59.0,73,29.96,8.0,South,3.5,-,N/A,,Mostly Cloudy,190,2013-08-03 07:16:00
12:53 AM,68.0,57.9,70,29.96,9.0,South,4.6,-,N/A,,Overcast,190,2013-08-03 07:53:00
1:53 AM,68.0,57.9,70,29.96,9.0,Variable,3.5,-,N/A,,Overcast,0,2013-08-03 08:53:00
2:53 AM,68.0,57.9,70,29.95,9.0,Calm,Calm,-,N/A,,Overcast,0,2013-08-03 09:53:00
3:53 AM,68.0,57.9,70,29.94,9.0,Calm,Calm,-,N/A,,Overcast,0,2013-08-03 10:53:00
4:53 AM,68.0,57.9,70,29.95,9.0,Calm,Calm,-,N/A,,Overcast,0,2013-08-03 11:53:00
5:53 AM,69.1,57.9,68,29.95,9.0,Calm,Calm,-,N/A,,Overcast,0,2013-08-03 12:53:00
6:53 AM,69.1,57.9,68,29.96,8.0,Calm,Calm,-,N/A,,Overcast,0,2013-08-03 13:53:00
7:53 AM,69.1,57.9,68,29.98,8.0,Calm,Calm,-,N/A,,Overcast,0,2013-08-03 14:53:00
8:53 AM,71.1,57.9,63,29.99,7.0,Calm,Calm,-,N/A,,Overcast,0,2013-08-03 15:53:00
9:53 AM,73.0,57.9,59,29.98,7.0,Calm,Calm,-,N/A,,Overcast,0,2013-08-03 16:53:00
10:40 AM,75.2,57.2,53,29.99,7.0,NNW,3.5,-,N/A,,Partly Cloudy,340,2013-08-03 17:40:00
10:53 AM,75.0,57.9,55,29.98,8.0,Variable,3.5,-,N/A,,Partly Cloudy,0,2013-08-03 17:53:00
11:53 AM,78.1,57.9,50,29.97,8.0,Variable,5.8,-,N/A,,Clear,0,2013-08-03 18:53:00
12:53 PM,80.1,57.9,47,29.96,10.0,Variable,3.5,-,N/A,,Clear,0,2013-08-03 19:53:00
1:53 PM,82.0,59.0,45,29.95,10.0,SSW,8.1,-,N/A,,Clear,210,2013-08-03 20:53:00
2:53 PM,79.0,59.0,50,29.94,10.0,Variable,5.8,-,N/A,,Clear,0,2013-08-03 21:53:00
3:53 PM,80.1,59.0,48,29.93,10.0,SW,6.9,-,N/A,,Clear,220,2013-08-03 22:53:00
4:53 PM,78.1,59.0,52,29.92,10.0,South,10.4,-,N/A,,Clear,190,2013-08-03 23:53:00
5:53 PM,78.1,59.0,52,29.92,9.0,SSW,6.9,-,N/A,,Clear,200,2013-08-04 00:53:00
6:53 PM,75.0,59.0,57,29.92,9.0,South,6.9,-,N/A,,Clear,180,2013-08-04 01:53:00
7:53 PM,72.0,57.9,61,29.93,9.0,South,5.8,-,N/A,,Clear,180,2013-08-04 02:53:00
8:53 PM,70.0,57.9,65,29.95,10.0,West,4.6,-,N/A,,Clear,260,2013-08-04 03:53:00
9:53 PM,69.1,57.9,68,29.96,10.0,WNW,3.5,-,N/A,,Clear,290,2013-08-04 04:53:00
10:53 PM,68.0,57.9,70,29.97,9.0,Calm,Calm,-,N/A,,Clear,0,2013-08-04 05:53:00
11:53 PM,66.9,57.9,73,29.97,8.0,Calm,Calm,-,N/A,,Clear,0,2013-08-04 06:53:00